Zurück zum Katalog

NEE 01 PEGASUS

AktivWissenschaftSSO
NORAD 39151·PAYLOAD·🇪🇨 Ecuador

Gestartet Apr 26, 2013 von Jiuquan Satellite Launch Center

Loading…

Nächste Überflüge (nächste 24 Stunden)

TLE

AktuellSource: Space-Track

Epoche: Sep 13, 2026, 21:11 UTC

1 39151U 13018B   26256.88299468  .00002190  00000-0  21094-3 0  9998
2 39151  98.1352  44.0547 0011487 227.8815 132.1428 14.94017677723949

Verfolge NEE 01 PEGASUS in Echtzeit mit AllMySat

Download on the App Store